Covington, KY

4:29 AM EDT on August 22, 2017 (GMT -0400)
Cincinnati-Northern KY International

Weather History for KCVG - February, 2012

Change the Weather History Date:

Wednesday, February 22, 2012

  Actual Average Record
Temperature  
Mean Temperature 47 °F 36 °F  
Max Temperature 57 °F 45 °F 71 °F (1922)
Min Temperature 36 °F 28 °F -10 °F (1963)
Degree Days  
Heating Degree Days 18 29  
Month to date heating degree days 613 689  
Since 1 July heating degree days 3171 3661  
Cooling Degree Days 0 0  
Month to date cooling degree days 0 0  
Year to date cooling degree days 0 0  
Moisture  
Dew Point 33 °F    
Average Humidity 62    
Maximum Humidity 89    
Minimum Humidity 35    
Precipitation  
Precipitation 0.03 in 0.09 in 2.19 in (1944)
Month to date precipitation 0.91 2.21  
Year to date precipitation 6.30 5.21  
Snow  
Snow 0.00 in 0.20 in 2.00 in (1993)
Month to date snowfall 2.1 5.4  
Since 1 July snowfall 4.1 17.5  
Snow Depth 0.00 in    
Sea Level Pressure  
Sea Level Pressure 29.62 in    
Wind  
Wind Speed 12 mph (SW)    
Max Wind Speed 31 mph    
Max Gust Speed 40 mph    
Visibility 10 miles    
Events Rain    
T = Trace of Precipitation, MM = Missing Value Source: NWS Daily Summary

Daily Weather History Graph

Daily Weather History Graph

Search for Another Location

Airport or City:

Trip Planner

Search our weather history database for the weather conditions in past years. The results will help you decide how hot, cold, wet, or windy it might be!

Date:

Astronomy

Feb. 22, 2012 Rise Set
Actual Time 7:21 AM EST 6:23 PM EST
Civil Twilight 6:54 AM EST 6:50 PM EST
Nautical Twilight 6:23 AM EST 7:21 PM EST
Astronomical Twilight 5:52 AM EST 7:52 PM EST
Moon 7:20 AM EST 7:28 PM EST
Length of Visible Light 11h 55m
Length of Day
11h 01m
New Moon, 1% of the Moon is Illuminated
Feb 22
New Moon
Feb 29
First Quarter
Mar 8
Full
Mar 14
Last Quarter
Mar 22
New

Hourly Weather History & Observations

Time (EST) Temp. Windchill Dew Point Humidity Pressure Visibility Wind Dir Wind Speed Gust Speed Precip Events Conditions
12:52 AM 42.1 °F 37.7 °F 35.1 °F 76% 29.86 in 10.0 mi SW 6.9 mph - N/A   Clear
1:52 AM 41.0 °F 35.2 °F 34.0 °F 76% 29.85 in 10.0 mi SSW 9.2 mph - N/A   Mostly Cloudy
2:52 AM 41.0 °F 36.4 °F 34.0 °F 76% 29.82 in 10.0 mi SSW 6.9 mph - N/A   Scattered Clouds
3:52 AM 39.9 °F 35.1 °F 34.0 °F 79% 29.79 in 10.0 mi SSW 6.9 mph - N/A   Overcast
4:52 AM 41.0 °F 35.8 °F 35.1 °F 79% 29.78 in 10.0 mi SSW 8.1 mph - N/A   Overcast
5:52 AM 39.9 °F 35.8 °F 34.0 °F 79% 29.76 in 10.0 mi SSW 5.8 mph - N/A   Mostly Cloudy
6:52 AM 37.9 °F 32.7 °F 33.1 °F 83% 29.75 in 10.0 mi South 6.9 mph - N/A   Mostly Cloudy
7:52 AM 36.0 °F 29.6 °F 32.0 °F 86% 29.71 in 10.0 mi South 8.1 mph - N/A   Partly Cloudy
8:52 AM 43.0 °F 36.8 °F 35.1 °F 74% 29.71 in 10.0 mi South 11.5 mph - N/A   Mostly Cloudy
9:52 AM 46.9 °F - 36.0 °F 66% 29.67 in 10.0 mi South 12.7 mph - N/A   Mostly Cloudy
10:52 AM 50.0 °F - 35.1 °F 57% 29.65 in 10.0 mi SSW 11.5 mph 19.6 mph N/A   Mostly Cloudy
11:52 AM 52.0 °F - 34.0 °F 50% 29.61 in 10.0 mi SSW 9.2 mph - N/A   Mostly Cloudy
12:52 PM 55.0 °F - 32.0 °F 42% 29.57 in 10.0 mi SW 13.8 mph - N/A   Overcast
1:52 PM 55.9 °F - 30.9 °F 39% 29.54 in 10.0 mi WSW 10.4 mph 18.4 mph N/A   Overcast
2:52 PM 57.0 °F - 30.0 °F 36% 29.51 in 10.0 mi WSW 10.4 mph - N/A   Overcast
3:52 PM 55.9 °F - 28.9 °F 36% 29.49 in 10.0 mi SW 20.7 mph 28.8 mph N/A   Overcast
4:52 PM 55.0 °F - 30.9 °F 40% 29.48 in 10.0 mi SW 11.5 mph 21.9 mph N/A   Overcast
5:52 PM 55.9 °F - 32.0 °F 40% 29.45 in 10.0 mi SSW 17.3 mph 24.2 mph N/A   Overcast
6:52 PM 55.9 °F - 30.0 °F 37% 29.47 in 10.0 mi WSW 17.3 mph 25.3 mph N/A   Overcast
7:52 PM 54.0 °F - 32.0 °F 43% 29.46 in 10.0 mi SW 10.4 mph - 0.00 in   Mostly Cloudy
8:52 PM 52.0 °F - 33.1 °F 49% 29.47 in 10.0 mi WSW 9.2 mph - N/A   Mostly Cloudy
9:52 PM 50.0 °F - 34.0 °F 54% 29.50 in 10.0 mi WNW 16.1 mph 21.9 mph N/A   Overcast
10:52 PM 50.0 °F - 35.1 °F 57% 29.50 in 10.0 mi WNW 31.1 mph 40.3 mph 0.00 in Rain Light Rain
11:52 PM 46.9 °F - 39.0 °F 74% 29.52 in 7.0 mi WSW 13.8 mph 23.0 mph 0.03 in Rain Light Rain